This demonstration page uses our WeatherBlox Daily Observations layout. Learn more.

Left ArrowRight Arrow

Hourly Observations for November 24, 2020

Temp ( °F °C ) Dew Point ( °F °C ) Humidity (%) Winds ( mph kmh ) Pressure ( in mb ) Visibility ( mi km ) Precip ( " mm )
12:51 am 00:51 Clear 60 15.6 29 -1.7 31 31 NW 14 22 29.71 1006 10 16 0.00 0.00
1:51 am 01:51 Clear 58 14.4 29 -1.7 33 33 NW 12 19 29.72 1006 10 16 0.00 0.00
2:51 am 02:51 Clear 56 13.3 29 -1.7 36 36 NNW 13 20 29.73 1007 10 16 0.00 0.00
3:51 am 03:51 Clear 53 11.7 30 -1.1 41 41 NW 10 17 29.75 1008 10 16 0.00 0.00
4:51 am 04:51 Clear 55 12.8 30 -1.1 38 38 NNW 15 24 29.76 1008 10 16 0.00 0.00
5:51 am 05:51 Mostly Clear 53 11.7 30 -1.1 41 41 NNW 10 17 29.79 1009 10 16 0.00 0.00
6:51 am 06:51 Clear 52 11.1 32 0 47 47 NW 14 22 29.82 1010 10 16 0.00 0.00
7:51 am 07:51 Sunny 54 12.2 35 1.7 49 49 WNW 13 20 29.86 1011 10 16 0.00 0.00
8:51 am 08:51 Sunny 58 14.4 34 1.1 41 41 NW 16 26 29.87 1012 10 16 0.00 0.00
9:51 am 09:51 Sunny 60 15.6 32 0 35 35 WNW 15 24 29.90 1013 10 16 0.00 0.00
10:51 am 10:51 Sunny 63 17.2 31 -0.6 30 30 NW 13 20 29.91 1013 10 16 0.00 0.00
11:51 am 11:51 Sunny 65 18.3 27 -2.8 24 24 W 16 26 29.90 1013 10 16 0.00 0.00
12:51 pm 12:51 Sunny 66 18.9 25 -3.9 21 21 WNW 13 20 29.89 1012 10 16 0.00 0.00
1:51 pm 13:51 Sunny 66 18.9 19 -7.2 16 16 W 16 26 29.89 1012 10 16 0.00 0.00
2:51 pm 14:51 Sunny 66 18.9 18 -7.8 16 16 NW 15 24 29.88 1012 10 16 0.00 0.00
3:51 pm 15:51 Sunny 66 18.9 18 -7.8 16 16 NW 16 26 29.90 1012 10 16 0.00 0.00
4:51 pm 16:51 Sunny 63 17.2 15 -9.4 15 15 NW 13 20 29.91 1013 10 16 0.00 0.00
5:51 pm 17:51 Clear 57 13.9 15 -9.4 19 19 NW 8 13 29.94 1014 10 16 0.00 0.00
6:51 pm 18:51 Clear 54 12.2 15 -9.4 21 21 NW 10 17 29.98 1015 10 16 0.00 0.00
7:51 pm 19:51 Clear 54 12.2 15 -9.4 21 21 NNW 9 15 29.98 1015 10 16 0.00 0.00
8:51 pm 20:51 Clear 49 9.4 15 -9.4 26 26 NNW 5 7 30.00 1016 10 16 0.00 0.00
9:51 pm 21:51 Clear 48 8.9 15 -9.4 27 27 W 3 6 30.01 1016 10 16 0.00 0.00
10:51 pm 22:51 Clear 39 3.9 13 -10.6 34 34 ESE 5 7 30.04 1017 10 16 0.00 0.00
11:51 pm 23:51 Clear 40 4.4 13 -10.6 33 33 E 5 7 30.04 1017 10 16 0.00 0.00

Powered by AerisWeather